Time,TemperatureF,DewpointF,PressureIn,WindDirection,WindDirectionDegrees,WindSpeedMPH,WindSpeedGustMPH,Humidity,HourlyPrecipIn,Conditions,Clouds,dailyrainin,SoftwareType,DateUTC
2018-05-23 00:01:00,53.1,49.8,29.82,SE,140,0.0,0.0,89,0.00,,,0.00,meteobridge,2018-05-23 07:01:00,
2018-05-23 00:06:00,52.9,49.6,29.82,SE,140,0.0,0.0,89,0.00,,,0.00,meteobridge,2018-05-23 07:06:00,
2018-05-23 00:12:00,52.7,49.3,29.82,SE,140,0.0,0.0,88,0.00,,,0.00,meteobridge,2018-05-23 07:12:00,
2018-05-23 00:17:00,52.5,49.5,29.82,SE,140,0.0,0.0,89,0.00,,,0.00,meteobridge,2018-05-23 07:17:00,
2018-05-23 00:22:00,52.3,48.9,29.82,SE,140,0.0,0.0,88,0.00,,,0.00,meteobridge,2018-05-23 07:22:00,
2018-05-23 00:28:00,52.2,48.7,29.82,SE,140,0.0,0.0,88,0.00,,,0.00,meteobridge,2018-05-23 07:28:00,
2018-05-23 00:33:00,52.0,48.6,29.82,SE,140,0.0,0.0,88,0.00,,,0.00,meteobridge,2018-05-23 07:33:00,
2018-05-23 00:38:00,52.0,48.6,29.82,SE,140,0.0,0.0,88,0.00,,,0.00,meteobridge,2018-05-23 07:38:00,
2018-05-23 00:43:00,51.8,48.4,29.81,SE,140,0.0,0.0,88,0.00,,,0.00,meteobridge,2018-05-23 07:43:00,
2018-05-23 00:48:00,51.8,48.4,29.82,SE,140,0.0,0.0,88,0.00,,,0.00,meteobridge,2018-05-23 07:48:00,
2018-05-23 00:53:00,51.6,48.2,29.81,SE,140,0.0,0.0,88,0.00,,,0.00,meteobridge,2018-05-23 07:53:00,
2018-05-23 00:59:00,51.4,48.0,29.81,SE,140,0.0,0.0,88,0.00,,,0.00,meteobridge,2018-05-23 07:59:00,
2018-05-23 01:04:00,51.3,47.8,29.82,SE,140,0.0,0.0,88,0.00,,,0.00,meteobridge,2018-05-23 08:04:00,
2018-05-23 01:09:00,51.1,47.7,29.82,SE,140,0.0,0.0,88,0.00,,,0.00,meteobridge,2018-05-23 08:09:00,
2018-05-23 01:14:00,50.9,47.5,29.82,SE,140,0.0,0.0,88,0.00,,,0.00,meteobridge,2018-05-23 08:14:00,
2018-05-23 01:19:00,50.5,47.1,29.82,SE,140,0.0,0.0,88,0.00,,,0.00,meteobridge,2018-05-23 08:19:00,
2018-05-23 01:24:00,50.4,46.9,29.82,SE,140,0.0,0.0,88,0.00,,,0.00,meteobridge,2018-05-23 08:24:00,
2018-05-23 01:30:00,50.4,46.9,29.82,SE,140,0.0,0.0,88,0.00,,,0.00,meteobridge,2018-05-23 08:30:00,
2018-05-23 01:35:00,50.4,46.6,29.82,SE,140,0.0,0.0,87,0.00,,,0.00,meteobridge,2018-05-23 08:35:00,
2018-05-23 01:40:00,50.4,46.6,29.82,SE,140,0.0,0.0,87,0.00,,,0.00,meteobridge,2018-05-23 08:40:00,
2018-05-23 01:46:00,50.2,46.4,29.82,SE,140,0.0,0.0,87,0.00,,,0.00,meteobridge,2018-05-23 08:46:00,
2018-05-23 01:51:00,50.0,46.6,29.81,SE,140,0.0,0.0,88,0.00,,,0.00,meteobridge,2018-05-23 08:51:00,
2018-05-23 01:56:00,49.8,46.0,29.81,SE,140,0.0,0.0,87,0.00,,,0.00,meteobridge,2018-05-23 08:56:00,
2018-05-23 02:02:00,49.6,45.9,29.81,SE,141,0.0,0.0,87,0.00,,,0.00,meteobridge,2018-05-23 09:02:00,
2018-05-23 02:07:00,49.6,45.9,29.81,SE,140,0.0,0.0,87,0.00,,,0.00,meteobridge,2018-05-23 09:07:00,
2018-05-23 02:13:00,49.5,45.7,29.81,SE,140,0.0,0.0,87,0.00,,,0.00,meteobridge,2018-05-23 09:13:00,
2018-05-23 02:18:00,49.3,45.5,29.81,SE,140,0.0,0.0,87,0.00,,,0.00,meteobridge,2018-05-23 09:18:00,
2018-05-23 02:23:00,49.3,45.5,29.81,SE,140,0.0,0.0,87,0.00,,,0.00,meteobridge,2018-05-23 09:23:00,
2018-05-23 02:28:00,49.1,45.3,29.81,SE,140,0.0,0.0,87,0.00,,,0.00,meteobridge,2018-05-23 09:28:00,
2018-05-23 02:34:00,48.9,45.1,29.82,SE,140,0.0,0.0,87,0.00,,,0.00,meteobridge,2018-05-23 09:34:00,
2018-05-23 02:39:00,48.7,45.0,29.82,SE,140,0.0,0.0,87,0.00,,,0.00,meteobridge,2018-05-23 09:39:00,
2018-05-23 02:44:00,48.6,44.8,29.82,SE,140,0.0,0.0,87,0.00,,,0.00,meteobridge,2018-05-23 09:44:00,
2018-05-23 02:49:00,48.6,44.8,29.82,SE,140,0.0,0.0,87,0.00,,,0.00,meteobridge,2018-05-23 09:49:00,
2018-05-23 02:54:00,48.4,44.8,29.82,SE,140,0.0,0.0,87,0.00,,,0.00,meteobridge,2018-05-23 09:54:00,
2018-05-23 03:00:00,48.4,44.8,29.82,SE,140,0.0,0.0,87,0.00,,,0.00,meteobridge,2018-05-23 10:00:00,
2018-05-23 03:05:00,48.4,44.8,29.82,SE,140,0.0,0.0,87,0.00,,,0.00,meteobridge,2018-05-23 10:05:00,
2018-05-23 03:10:00,48.2,44.6,29.82,SE,140,0.0,0.0,87,0.00,,,0.00,meteobridge,2018-05-23 10:10:00,
2018-05-23 03:15:00,48.0,44.4,29.82,SE,140,0.0,0.0,87,0.00,,,0.00,meteobridge,2018-05-23 10:15:00,
2018-05-23 03:21:00,47.8,44.2,29.82,SE,140,0.0,0.0,87,0.00,,,0.00,meteobridge,2018-05-23 10:21:00,
2018-05-23 03:26:00,47.7,44.1,29.82,SE,140,0.0,0.0,87,0.00,,,0.00,meteobridge,2018-05-23 10:26:00,
2018-05-23 03:32:00,47.7,44.1,29.82,SE,140,0.0,0.0,87,0.00,,,0.00,meteobridge,2018-05-23 10:32:00,
2018-05-23 03:37:00,47.5,43.9,29.83,SE,140,0.0,0.0,87,0.00,,,0.00,meteobridge,2018-05-23 10:37:00,
2018-05-23 03:43:00,47.5,43.9,29.83,SE,141,0.0,0.0,87,0.00,,,0.00,meteobridge,2018-05-23 10:43:00,
2018-05-23 03:48:00,47.5,43.9,29.83,SE,140,0.0,0.0,87,0.00,,,0.00,meteobridge,2018-05-23 10:48:00,
2018-05-23 03:53:00,47.1,43.5,29.83,SE,140,0.0,0.0,87,0.00,,,0.00,meteobridge,2018-05-23 10:53:00,
2018-05-23 03:59:00,47.1,43.5,29.83,SE,140,0.0,0.0,87,0.00,,,0.00,meteobridge,2018-05-23 10:59:00,
2018-05-23 04:04:00,47.1,43.5,29.83,SE,140,0.0,0.0,87,0.00,,,0.00,meteobridge,2018-05-23 11:04:00,
2018-05-23 04:09:00,46.9,43.3,29.83,SE,140,0.0,0.0,87,0.00,,,0.00,meteobridge,2018-05-23 11:09:00,
2018-05-23 04:14:00,46.9,43.3,29.83,SE,140,0.0,0.0,87,0.00,,,0.00,meteobridge,2018-05-23 11:14:00,
2018-05-23 04:20:00,46.9,43.3,29.83,SE,140,0.0,0.0,87,0.00,,,0.00,meteobridge,2018-05-23 11:20:00,
2018-05-23 04:25:00,46.8,43.2,29.83,SE,140,0.0,0.0,87,0.00,,,0.00,meteobridge,2018-05-23 11:25:00,
2018-05-23 04:30:00,46.8,43.2,29.83,SE,140,0.0,0.0,87,0.00,,,0.00,meteobridge,2018-05-23 11:30:00,
2018-05-23 04:35:00,46.6,43.0,29.83,SE,140,0.0,0.0,87,0.00,,,0.00,meteobridge,2018-05-23 11:35:00,
2018-05-23 04:41:00,46.6,43.0,29.83,SE,140,0.0,0.0,87,0.00,,,0.00,meteobridge,2018-05-23 11:41:00,
2018-05-23 04:46:00,46.6,43.0,29.83,SE,140,0.0,0.0,87,0.00,,,0.00,meteobridge,2018-05-23 11:46:00,
2018-05-23 04:52:00,46.6,43.2,29.83,SE,140,0.0,0.0,88,0.00,,,0.00,meteobridge,2018-05-23 11:52:00,
2018-05-23 04:57:00,46.4,43.0,29.83,SE,140,0.0,0.0,88,0.00,,,0.00,meteobridge,2018-05-23 11:57:00,
2018-05-23 05:03:00,46.0,42.6,29.83,SE,140,0.0,0.0,88,0.00,,,0.00,meteobridge,2018-05-23 12:03:00,
2018-05-23 05:08:00,46.0,42.6,29.83,SE,140,0.0,0.0,88,0.00,,,0.00,meteobridge,2018-05-23 12:08:00,
2018-05-23 05:13:00,45.9,42.4,29.83,SE,140,0.0,0.0,88,0.00,,,0.00,meteobridge,2018-05-23 12:13:00,
2018-05-23 05:19:00,45.9,42.4,29.83,SE,140,0.0,0.0,88,0.00,,,0.00,meteobridge,2018-05-23 12:19:00,
2018-05-23 05:24:00,45.9,42.4,29.84,SE,140,0.0,0.0,88,0.00,,,0.00,meteobridge,2018-05-23 12:24:00,
2018-05-23 05:30:00,45.9,42.4,29.84,SE,140,0.0,0.0,88,0.00,,,0.00,meteobridge,2018-05-23 12:30:00,
2018-05-23 05:35:00,45.7,42.3,29.84,SE,140,0.0,0.0,88,0.00,,,0.00,meteobridge,2018-05-23 12:35:00,
2018-05-23 05:40:00,45.7,42.3,29.84,SE,140,0.0,0.0,88,0.00,,,0.00,meteobridge,2018-05-23 12:40:00,
2018-05-23 05:46:00,45.7,42.3,29.84,SE,141,0.0,0.0,88,0.00,,,0.00,meteobridge,2018-05-23 12:46:00,
2018-05-23 05:51:00,45.5,42.1,29.84,SE,140,0.0,0.0,88,0.00,,,0.00,meteobridge,2018-05-23 12:51:00,
2018-05-23 05:56:00,45.5,42.1,29.84,SE,140,0.0,0.0,88,0.00,,,0.00,meteobridge,2018-05-23 12:56:00,
2018-05-23 06:01:00,45.5,42.1,29.84,SE,140,0.0,0.0,88,0.00,,,0.00,meteobridge,2018-05-23 13:01:00,
2018-05-23 06:07:00,45.5,42.1,29.85,SE,141,0.0,0.0,88,0.00,,,0.00,meteobridge,2018-05-23 13:07:00,
2018-05-23 06:12:00,45.5,42.1,29.85,SE,140,0.0,0.0,88,0.00,,,0.00,meteobridge,2018-05-23 13:12:00,
2018-05-23 06:18:00,45.5,42.1,29.85,SE,140,0.0,0.0,88,0.00,,,0.00,meteobridge,2018-05-23 13:18:00,
2018-05-23 06:23:00,45.7,42.3,29.85,SE,140,0.0,0.0,88,0.00,,,0.00,meteobridge,2018-05-23 13:23:00,
2018-05-23 06:29:00,45.9,42.4,29.85,SE,140,0.0,0.0,88,0.00,,,0.00,meteobridge,2018-05-23 13:29:00,
2018-05-23 06:34:00,45.9,42.4,29.85,SE,140,0.0,0.0,88,0.00,,,0.00,meteobridge,2018-05-23 13:34:00,
2018-05-23 06:40:00,45.9,42.4,29.85,SE,140,0.0,0.0,88,0.00,,,0.00,meteobridge,2018-05-23 13:40:00,
2018-05-23 06:45:00,46.2,42.8,29.85,SE,140,0.0,0.0,88,0.00,,,0.00,meteobridge,2018-05-23 13:45:00,
2018-05-23 06:50:00,46.6,43.2,29.85,SE,140,0.0,0.0,88,0.00,,,0.00,meteobridge,2018-05-23 13:50:00,
2018-05-23 06:56:00,46.9,43.5,29.85,SE,140,0.0,0.0,88,0.00,,,0.00,meteobridge,2018-05-23 13:56:00,
2018-05-23 07:01:00,47.1,43.7,29.85,SE,140,0.0,0.0,88,0.00,,,0.00,meteobridge,2018-05-23 14:01:00,
2018-05-23 07:07:00,47.7,44.2,29.85,SE,140,0.0,0.0,88,0.00,,,0.00,meteobridge,2018-05-23 14:07:00,
2018-05-23 07:12:00,47.8,44.4,29.85,SE,140,0.0,0.0,88,0.00,,,0.00,meteobridge,2018-05-23 14:12:00,
2018-05-23 07:18:00,48.0,44.6,29.86,SE,140,0.0,0.0,88,0.00,,,0.00,meteobridge,2018-05-23 14:18:00,
2018-05-23 07:23:00,48.7,45.3,29.85,SE,140,0.0,0.0,88,0.00,,,0.00,meteobridge,2018-05-23 14:23:00,
2018-05-23 07:29:00,49.8,46.4,29.85,SE,140,0.0,0.0,88,0.00,,,0.00,meteobridge,2018-05-23 14:29:00,
2018-05-23 07:34:00,50.7,47.3,29.85,SE,140,0.0,0.0,88,0.00,,,0.00,meteobridge,2018-05-23 14:34:00,
2018-05-23 07:39:00,51.4,48.0,29.85,SE,140,0.0,0.0,88,0.00,,,0.00,meteobridge,2018-05-23 14:39:00,
2018-05-23 07:45:00,52.2,48.7,29.85,SE,140,0.0,0.0,88,0.00,,,0.00,meteobridge,2018-05-23 14:45:00,
2018-05-23 07:50:00,52.7,49.3,29.85,SE,140,0.0,0.0,88,0.00,,,0.00,meteobridge,2018-05-23 14:50:00,
2018-05-23 07:55:00,53.2,49.8,29.85,SE,140,0.0,0.0,88,0.00,,,0.00,meteobridge,2018-05-23 14:55:00,
2018-05-23 08:00:00,54.0,50.5,29.85,SE,140,0.0,0.0,88,0.00,,,0.00,meteobridge,2018-05-23 15:00:00,
2018-05-23 08:05:00,54.9,51.4,29.85,SE,140,0.0,0.0,88,0.00,,,0.00,meteobridge,2018-05-23 15:05:00,
2018-05-23 08:10:00,56.3,52.5,29.85,SE,140,0.0,0.0,87,0.00,,,0.00,meteobridge,2018-05-23 15:10:00,
2018-05-23 08:16:00,57.2,53.4,29.85,SE,140,0.0,0.0,87,0.00,,,0.00,meteobridge,2018-05-23 15:16:00,
2018-05-23 08:21:00,58.5,54.7,29.85,SE,140,0.0,0.0,87,0.00,,,0.00,meteobridge,2018-05-23 15:21:00,
2018-05-23 08:27:00,59.2,55.4,29.84,SE,140,0.0,0.0,87,0.00,,,0.00,meteobridge,2018-05-23 15:27:00,
2018-05-23 08:32:00,60.8,57.9,29.84,SE,140,0.0,0.0,90,0.00,,,0.00,meteobridge,2018-05-23 15:32:00,
2018-05-23 08:38:00,62.8,59.2,29.84,SE,140,0.0,0.0,88,0.00,,,0.00,meteobridge,2018-05-23 15:38:00,
2018-05-23 08:43:00,64.6,57.9,29.84,SE,140,0.0,0.0,79,0.00,,,0.00,meteobridge,2018-05-23 15:43:00,
2018-05-23 08:48:00,65.8,58.5,29.84,SE,141,0.0,0.0,77,0.00,,,0.00,meteobridge,2018-05-23 15:48:00,
2018-05-23 08:54:00,66.6,57.2,29.84,SE,141,0.0,0.0,72,0.00,,,0.00,meteobridge,2018-05-23 15:54:00,
2018-05-23 08:59:00,66.7,57.7,29.83,NE,56,0.0,0.0,73,0.00,,,0.00,meteobridge,2018-05-23 15:59:00,
2018-05-23 09:04:00,66.6,55.6,29.83,NNW,334,0.0,1.0,68,0.00,,,0.00,meteobridge,2018-05-23 16:04:00,
2018-05-23 09:09:00,66.6,56.5,29.83,WNW,296,0.0,2.0,70,0.00,,,0.00,meteobridge,2018-05-23 16:09:00,
2018-05-23 09:15:00,67.6,56.7,29.83,NW,319,0.0,1.0,68,0.00,,,0.00,meteobridge,2018-05-23 16:15:00,
2018-05-23 09:20:00,68.5,56.7,29.83,WNW,296,0.0,1.0,66,0.00,,,0.00,meteobridge,2018-05-23 16:20:00,
2018-05-23 09:25:00,69.4,58.5,29.83,North,353,0.0,1.0,68,0.00,,,0.00,meteobridge,2018-05-23 16:25:00,
2018-05-23 09:31:00,69.8,57.0,29.83,NE,52,1.1,1.1,64,0.00,,,0.00,meteobridge,2018-05-23 16:31:00,
2018-05-23 09:36:00,69.4,55.4,29.71,NE,45,0.0,1.0,61,0.00,,,0.00,meteobridge,2018-05-23 16:36:00,
2018-05-23 09:41:00,70.0,56.3,29.65,NNE,31,0.0,1.0,62,0.00,,,0.00,meteobridge,2018-05-23 16:41:00,
2018-05-23 09:47:00,70.5,55.9,29.62,NNW,340,1.1,2.0,60,0.00,,,0.00,meteobridge,2018-05-23 16:47:00,
2018-05-23 09:52:00,70.0,55.9,29.58,NNW,333,1.1,4.0,61,0.00,,,0.00,meteobridge,2018-05-23 16:52:00,
2018-05-23 09:58:00,70.0,55.9,29.57,ENE,68,2.0,2.0,61,0.00,,,0.00,meteobridge,2018-05-23 16:58:00,
2018-05-23 10:03:00,70.2,56.5,29.55,NE,34,1.1,4.0,62,0.00,,,0.00,meteobridge,2018-05-23 17:03:00,
2018-05-23 10:08:00,70.0,55.9,29.55,NE,45,3.1,9.0,61,0.00,,,0.00,meteobridge,2018-05-23 17:08:00,
2018-05-23 10:13:00,70.3,56.3,29.49,NE,49,6.3,6.3,61,0.00,,,0.00,meteobridge,2018-05-23 17:13:00,
2018-05-23 10:18:00,70.7,56.1,29.50,NNE,27,3.1,5.0,60,0.00,,,0.00,meteobridge,2018-05-23 17:18:00,
2018-05-23 10:24:00,71.4,56.8,29.61,West,259,0.0,2.0,60,0.00,,,0.00,meteobridge,2018-05-23 17:24:00,
2018-05-23 10:29:00,72.0,56.3,29.71,NNW,330,2.0,7.0,58,0.00,,,0.00,meteobridge,2018-05-23 17:29:00,
2018-05-23 10:34:00,72.0,56.8,29.72,NE,37,5.4,10.0,59,0.00,,,0.00,meteobridge,2018-05-23 17:34:00,
2018-05-23 10:40:00,72.7,57.6,29.76,NW,314,3.1,5.0,59,0.00,,,0.00,meteobridge,2018-05-23 17:40:00,
2018-05-23 10:45:00,72.7,56.5,29.77,ENE,62,7.4,7.4,57,0.00,,,0.00,meteobridge,2018-05-23 17:45:00,
2018-05-23 10:50:00,72.9,57.7,29.77,West,276,0.0,3.0,59,0.00,,,0.00,meteobridge,2018-05-23 17:50:00,
2018-05-23 10:55:00,73.6,57.9,29.78,SSE,157,1.1,2.0,58,0.00,,,0.00,meteobridge,2018-05-23 17:55:00,
2018-05-23 11:01:00,74.5,57.7,29.78,NW,324,1.1,3.0,56,0.00,,,0.00,meteobridge,2018-05-23 18:01:00,
2018-05-23 11:06:00,74.8,58.1,29.78,North,10,2.0,4.0,56,0.00,,,0.00,meteobridge,2018-05-23 18:06:00,
2018-05-23 11:11:00,74.8,58.6,29.78,NE,49,3.1,5.0,57,0.00,,,0.00,meteobridge,2018-05-23 18:11:00,
2018-05-23 11:16:00,74.8,57.6,29.78,North,3,4.3,7.0,55,0.00,,,0.00,meteobridge,2018-05-23 18:16:00,
2018-05-23 11:22:00,74.7,56.8,29.79,NNE,16,3.1,10.0,54,0.00,,,0.00,meteobridge,2018-05-23 18:22:00,
2018-05-23 11:27:00,74.5,56.7,29.79,NE,44,4.3,6.0,54,0.00,,,0.00,meteobridge,2018-05-23 18:27:00,
2018-05-23 11:32:00,74.7,56.8,29.79,East,97,0.0,5.0,54,0.00,,,0.00,meteobridge,2018-05-23 18:32:00,
2018-05-23 11:38:00,75.0,57.7,29.79,North,355,0.0,4.0,55,0.00,,,0.00,meteobridge,2018-05-23 18:38:00,
2018-05-23 11:43:00,75.7,57.9,29.79,North,11,4.3,6.0,54,0.00,,,0.00,meteobridge,2018-05-23 18:43:00,
2018-05-23 11:48:00,76.1,58.3,29.79,ENE,65,2.0,5.0,54,0.00,,,0.00,meteobridge,2018-05-23 18:48:00,
2018-05-23 11:54:00,76.3,58.5,29.79,North,358,2.0,5.0,54,0.00,,,0.00,meteobridge,2018-05-23 18:54:00,
2018-05-23 11:59:00,76.3,57.9,29.78,NNW,343,4.3,9.0,53,0.00,,,0.00,meteobridge,2018-05-23 18:59:00,
2018-05-23 12:04:00,76.5,57.6,29.78,NNE,30,2.0,6.0,52,0.00,,,0.00,meteobridge,2018-05-23 19:04:00,
2018-05-23 12:10:00,77.4,58.3,29.78,NW,317,2.0,3.0,52,0.00,,,0.00,meteobridge,2018-05-23 19:10:00,
2018-05-23 12:15:00,77.7,57.6,29.78,WNW,293,1.1,5.0,50,0.00,,,0.00,meteobridge,2018-05-23 19:15:00,
2018-05-23 12:20:00,77.2,57.7,29.78,ENE,68,3.1,6.0,51,0.00,,,0.00,meteobridge,2018-05-23 19:20:00,
2018-05-23 12:25:00,76.6,57.2,29.78,ENE,59,4.3,7.0,51,0.00,,,0.00,meteobridge,2018-05-23 19:25:00,
2018-05-23 12:30:00,76.3,56.8,29.78,NNW,327,7.4,7.4,51,0.00,,,0.00,meteobridge,2018-05-23 19:30:00,
2018-05-23 12:36:00,76.8,58.5,29.77,WSW,241,1.1,4.0,53,0.00,,,0.00,meteobridge,2018-05-23 19:36:00,
2018-05-23 12:41:00,77.2,57.0,29.78,NW,309,1.1,11.0,50,0.00,,,0.00,meteobridge,2018-05-23 19:41:00,
2018-05-23 12:47:00,77.4,59.4,29.78,NE,34,5.4,5.4,54,0.00,,,0.00,meteobridge,2018-05-23 19:47:00,
2018-05-23 12:52:00,77.5,57.9,29.78,SE,144,1.1,5.0,51,0.00,,,0.00,meteobridge,2018-05-23 19:52:00,
2018-05-23 12:57:00,77.4,57.2,29.77,SSW,203,0.0,11.0,50,0.00,,,0.00,meteobridge,2018-05-23 19:57:00,
2018-05-23 13:03:00,77.4,57.2,29.79,SSE,157,4.3,5.0,50,0.00,,,0.00,meteobridge,2018-05-23 20:03:00,
2018-05-23 13:08:00,77.4,57.2,29.79,WSW,251,8.5,10.0,50,0.00,,,0.00,meteobridge,2018-05-23 20:08:00,
2018-05-23 13:13:00,77.4,57.7,29.80,WNW,303,0.0,5.0,51,0.00,,,0.00,meteobridge,2018-05-23 20:13:00,
2018-05-23 13:19:00,77.5,56.8,29.80,SSW,200,8.5,11.0,49,0.00,,,0.00,meteobridge,2018-05-23 20:19:00,
2018-05-23 13:24:00,77.2,57.7,29.80,ESE,107,4.3,4.3,51,0.00,,,0.00,meteobridge,2018-05-23 20:24:00,
2018-05-23 13:29:00,77.2,58.3,29.80,SSW,204,1.1,6.0,52,0.00,,,0.00,meteobridge,2018-05-23 20:29:00,
2018-05-23 13:34:00,77.5,59.0,29.79,SW,224,6.3,6.3,53,0.00,,,0.00,meteobridge,2018-05-23 20:34:00,
2018-05-23 13:40:00,77.2,58.3,29.80,South,182,2.0,6.0,52,0.00,,,0.00,meteobridge,2018-05-23 20:40:00,
2018-05-23 13:45:00,76.8,57.9,29.79,SSW,199,4.3,7.0,52,0.00,,,0.00,meteobridge,2018-05-23 20:45:00,
2018-05-23 13:50:00,77.2,58.3,29.79,SSE,161,3.1,4.0,52,0.00,,,0.00,meteobridge,2018-05-23 20:50:00,
2018-05-23 13:55:00,77.5,57.4,29.79,SW,231,4.3,6.0,50,0.00,,,0.00,meteobridge,2018-05-23 20:55:00,
2018-05-23 14:01:00,77.5,57.9,29.78,SE,128,5.4,6.0,51,0.00,,,0.00,meteobridge,2018-05-23 21:01:00,
2018-05-23 14:06:00,78.3,59.2,29.78,NW,312,0.0,1.0,52,0.00,,,0.00,meteobridge,2018-05-23 21:06:00,
2018-05-23 14:11:00,78.6,59.0,29.78,WNW,296,0.0,3.0,51,0.00,,,0.00,meteobridge,2018-05-23 21:11:00,
2018-05-23 14:16:00,78.6,57.2,29.78,SW,221,2.0,6.0,48,0.00,,,0.00,meteobridge,2018-05-23 21:16:00,
2018-05-23 14:22:00,78.4,57.2,29.77,North,354,3.1,4.0,48,0.00,,,0.00,meteobridge,2018-05-23 21:22:00,
2018-05-23 14:27:00,78.6,57.9,29.78,NW,321,3.1,6.0,49,0.00,,,0.00,meteobridge,2018-05-23 21:27:00,
2018-05-23 14:33:00,78.4,58.3,29.78,East,94,1.1,2.0,50,0.00,,,0.00,meteobridge,2018-05-23 21:33:00,
2018-05-23 14:38:00,78.6,57.2,29.78,SSE,162,2.0,3.0,48,0.00,,,0.00,meteobridge,2018-05-23 21:38:00,
2018-05-23 14:43:00,78.6,57.2,29.78,South,173,0.0,5.0,48,0.00,,,0.00,meteobridge,2018-05-23 21:43:00,
2018-05-23 14:48:00,77.4,56.7,29.78,SW,214,6.3,6.3,49,0.00,,,0.00,meteobridge,2018-05-23 21:48:00,
2018-05-23 14:53:00,76.5,57.0,29.78,NW,307,1.1,2.0,51,0.00,,,0.00,meteobridge,2018-05-23 21:53:00,
2018-05-23 14:59:00,76.1,56.7,29.78,SSE,161,1.1,4.0,51,0.00,,,0.00,meteobridge,2018-05-23 21:59:00,
2018-05-23 15:04:00,75.7,56.8,29.78,East,79,2.0,4.0,52,0.00,,,0.00,meteobridge,2018-05-23 22:04:00,
2018-05-23 15:09:00,75.4,57.0,29.78,WSW,247,0.0,4.0,53,0.00,,,0.00,meteobridge,2018-05-23 22:09:00,
2018-05-23 15:15:00,75.9,57.6,29.78,East,99,3.1,3.1,53,0.00,,,0.00,meteobridge,2018-05-23 22:15:00,
2018-05-23 15:20:00,76.6,57.2,29.78,SW,231,1.1,6.0,51,0.00,,,0.00,meteobridge,2018-05-23 22:20:00,
2018-05-23 15:26:00,77.2,57.0,29.78,ESE,123,1.1,6.0,50,0.00,,,0.00,meteobridge,2018-05-23 22:26:00,
2018-05-23 15:31:00,77.2,56.5,29.77,WNW,288,2.0,6.0,49,0.00,,,0.00,meteobridge,2018-05-23 22:31:00,
2018-05-23 15:36:00,77.4,56.1,29.77,SW,219,6.3,6.3,48,0.00,,,0.00,meteobridge,2018-05-23 22:36:00,
2018-05-23 15:41:00,77.4,57.7,29.77,ESE,111,0.0,3.0,51,0.00,,,0.00,meteobridge,2018-05-23 22:41:00,
2018-05-23 15:47:00,78.3,57.6,29.77,SSW,196,0.0,2.0,49,0.00,,,0.00,meteobridge,2018-05-23 22:47:00,
2018-05-23 15:52:00,78.6,58.5,29.77,WNW,293,1.1,3.0,50,0.00,,,0.00,meteobridge,2018-05-23 22:52:00,
2018-05-23 15:58:00,79.0,57.0,29.77,South,179,0.0,3.0,47,0.00,,,0.00,meteobridge,2018-05-23 22:58:00,
2018-05-23 16:03:00,79.5,56.8,29.78,WSW,240,1.1,6.0,46,0.00,,,0.00,meteobridge,2018-05-23 23:03:00,
2018-05-23 16:08:00,80.1,56.8,29.78,WNW,292,2.0,4.0,45,0.00,,,0.00,meteobridge,2018-05-23 23:08:00,
2018-05-23 16:13:00,79.9,57.9,29.78,NW,317,1.1,2.0,47,0.00,,,0.00,meteobridge,2018-05-23 23:13:00,
2018-05-23 16:19:00,79.3,56.1,29.78,ENE,76,0.0,2.0,45,0.00,,,0.00,meteobridge,2018-05-23 23:19:00,
2018-05-23 16:24:00,78.4,55.9,29.79,NE,49,1.1,2.0,46,0.00,,,0.00,meteobridge,2018-05-23 23:24:00,
2018-05-23 16:30:00,76.8,55.0,29.79,North,10,1.1,5.0,47,0.00,,,0.00,meteobridge,2018-05-23 23:30:00,
2018-05-23 16:35:00,75.4,55.9,29.79,East,83,0.0,1.0,51,0.00,,,0.00,meteobridge,2018-05-23 23:35:00,
2018-05-23 16:41:00,74.1,55.4,29.79,NNW,327,8.5,9.0,52,0.00,,,0.00,meteobridge,2018-05-23 23:41:00,
2018-05-23 16:46:00,73.0,54.3,29.78,West,275,2.0,3.0,52,0.00,,,0.00,meteobridge,2018-05-23 23:46:00,
2018-05-23 16:52:00,73.0,53.8,29.78,ENE,72,0.0,2.0,51,0.00,,,0.00,meteobridge,2018-05-23 23:52:00,
2018-05-23 16:57:00,72.9,55.2,29.79,ENE,75,3.1,3.1,54,0.00,,,0.00,meteobridge,2018-05-23 23:57:00,
2018-05-23 17:02:00,72.7,53.4,29.78,ENE,69,2.0,6.0,51,0.00,,,0.00,meteobridge,2018-05-24 00:02:00,
2018-05-23 17:08:00,72.9,54.1,29.78,ESE,120,3.1,4.0,52,0.00,,,0.00,meteobridge,2018-05-24 00:08:00,
2018-05-23 17:13:00,72.9,54.7,29.78,SE,131,3.1,6.0,53,0.00,,,0.00,meteobridge,2018-05-24 00:13:00,
2018-05-23 17:19:00,72.1,54.5,29.78,NW,317,0.0,1.0,54,0.00,,,0.00,meteobridge,2018-05-24 00:19:00,
2018-05-23 17:24:00,71.6,54.1,29.78,NW,326,1.1,1.1,54,0.00,,,0.00,meteobridge,2018-05-24 00:24:00,
2018-05-23 17:29:00,71.2,54.7,29.78,WNW,300,3.1,4.0,56,0.00,,,0.00,meteobridge,2018-05-24 00:29:00,
2018-05-23 17:34:00,70.7,53.2,29.78,NE,37,0.0,5.0,54,0.00,,,0.00,meteobridge,2018-05-24 00:34:00,
2018-05-23 17:39:00,70.5,54.5,29.78,West,265,1.1,3.0,57,0.00,,,0.00,meteobridge,2018-05-24 00:39:00,
2018-05-23 17:45:00,70.2,53.8,29.78,NNW,344,0.0,1.0,56,0.00,,,0.00,meteobridge,2018-05-24 00:45:00,
2018-05-23 17:50:00,70.0,54.5,29.78,NNE,13,4.3,5.0,58,0.00,,,0.00,meteobridge,2018-05-24 00:50:00,
2018-05-23 17:56:00,69.4,54.9,29.78,WNW,303,0.0,1.0,60,0.00,,,0.00,meteobridge,2018-05-24 00:56:00,
2018-05-23 18:01:00,69.1,53.6,29.78,ESE,121,2.0,3.0,58,0.00,,,0.00,meteobridge,2018-05-24 01:01:00,
2018-05-23 18:07:00,69.3,53.8,29.77,WNW,300,0.0,0.0,58,0.00,,,0.00,meteobridge,2018-05-24 01:07:00,
2018-05-23 18:12:00,69.6,55.9,29.76,NE,47,0.0,4.0,62,0.00,,,0.00,meteobridge,2018-05-24 01:12:00,
2018-05-23 18:17:00,70.3,55.8,29.76,North,0,0.0,1.0,60,0.00,,,0.00,meteobridge,2018-05-24 01:17:00,
2018-05-23 18:23:00,70.7,56.1,29.76,NNE,30,2.0,2.0,60,0.00,,,0.00,meteobridge,2018-05-24 01:23:00,
2018-05-23 18:28:00,71.1,55.9,29.75,ENE,61,0.0,0.0,59,0.00,,,0.00,meteobridge,2018-05-24 01:28:00,
2018-05-23 18:33:00,71.4,55.4,29.75,SW,219,0.0,0.0,57,0.00,,,0.00,meteobridge,2018-05-24 01:33:00,
2018-05-23 18:38:00,71.6,55.6,29.75,NW,312,0.0,2.0,57,0.00,,,0.00,meteobridge,2018-05-24 01:38:00,
2018-05-23 18:44:00,71.6,54.1,29.75,WNW,300,0.0,1.0,54,0.00,,,0.00,meteobridge,2018-05-24 01:44:00,
2018-05-23 18:49:00,71.6,55.6,29.75,North,3,0.0,1.0,57,0.00,,,0.00,meteobridge,2018-05-24 01:49:00,
2018-05-23 18:54:00,71.4,55.4,29.75,NNW,327,1.1,2.0,57,0.00,,,0.00,meteobridge,2018-05-24 01:54:00,
2018-05-23 18:59:00,71.6,57.0,29.76,North,7,1.1,1.1,60,0.00,,,0.00,meteobridge,2018-05-24 01:59:00,
2018-05-23 19:04:00,71.6,56.1,29.76,East,82,0.0,0.0,58,0.00,,,0.00,meteobridge,2018-05-24 02:04:00,
2018-05-23 19:10:00,71.6,56.1,29.76,NNE,23,0.0,1.0,58,0.00,,,0.00,meteobridge,2018-05-24 02:10:00,
2018-05-23 19:15:00,71.4,55.4,29.76,NNW,345,0.0,1.0,57,0.00,,,0.00,meteobridge,2018-05-24 02:15:00,
2018-05-23 19:20:00,71.6,55.0,29.76,North,1,0.0,0.0,56,0.00,,,0.00,meteobridge,2018-05-24 02:20:00,
2018-05-23 19:25:00,71.6,55.0,29.76,North,1,0.0,0.0,56,0.00,,,0.00,meteobridge,2018-05-24 02:25:00,
2018-05-23 19:31:00,71.6,55.0,29.76,NNE,23,0.0,0.0,56,0.00,,,0.00,meteobridge,2018-05-24 02:31:00,
2018-05-23 19:36:00,71.6,56.1,29.77,NNE,24,0.0,0.0,58,0.00,,,0.00,meteobridge,2018-05-24 02:36:00,
2018-05-23 19:42:00,71.6,57.4,29.76,NNE,24,0.0,0.0,61,0.00,,,0.00,meteobridge,2018-05-24 02:42:00,
2018-05-23 19:47:00,71.2,55.2,29.77,NW,323,1.1,1.1,57,0.00,,,0.00,meteobridge,2018-05-24 02:47:00,
2018-05-23 19:52:00,71.1,55.0,29.77,SW,216,0.0,4.0,57,0.00,,,0.00,meteobridge,2018-05-24 02:52:00,
2018-05-23 19:58:00,70.5,55.0,29.78,WNW,298,1.1,3.0,58,0.00,,,0.00,meteobridge,2018-05-24 02:58:00,
2018-05-23 20:03:00,70.2,54.7,29.78,WSW,245,0.0,2.0,58,0.00,,,0.00,meteobridge,2018-05-24 03:03:00,
2018-05-23 20:09:00,69.6,54.1,29.79,SE,131,0.0,3.0,58,0.00,,,0.00,meteobridge,2018-05-24 03:09:00,
2018-05-23 20:14:00,69.1,54.1,29.79,WNW,283,0.0,2.0,59,0.00,,,0.00,meteobridge,2018-05-24 03:14:00,
2018-05-23 20:20:00,68.4,53.4,29.79,West,264,0.0,6.0,59,0.00,,,0.00,meteobridge,2018-05-24 03:20:00,
2018-05-23 20:25:00,67.8,53.4,29.80,North,4,0.0,2.0,60,0.00,,,0.00,meteobridge,2018-05-24 03:25:00,
2018-05-23 20:30:00,67.5,53.6,29.80,SSW,202,1.1,1.1,61,0.00,,,0.00,meteobridge,2018-05-24 03:30:00,
2018-05-23 20:36:00,66.7,52.9,29.80,NW,324,0.0,0.0,61,0.00,,,0.00,meteobridge,2018-05-24 03:36:00,
2018-05-23 20:41:00,66.0,53.1,29.80,WSW,241,0.0,2.0,63,0.00,,,0.00,meteobridge,2018-05-24 03:41:00,
2018-05-23 20:46:00,65.7,53.2,29.80,SSW,203,1.1,1.1,64,0.00,,,0.00,meteobridge,2018-05-24 03:46:00,
2018-05-23 20:51:00,64.9,52.9,29.81,SW,227,1.1,2.0,65,0.00,,,0.00,meteobridge,2018-05-24 03:51:00,
2018-05-23 20:57:00,64.6,52.5,29.81,WSW,237,1.1,1.1,65,0.00,,,0.00,meteobridge,2018-05-24 03:57:00,
2018-05-23 21:02:00,64.0,52.9,29.82,South,172,1.1,3.0,67,0.00,,,0.00,meteobridge,2018-05-24 04:02:00,
2018-05-23 21:07:00,63.7,52.2,29.82,SSW,209,1.1,4.0,66,0.00,,,0.00,meteobridge,2018-05-24 04:07:00,
2018-05-23 21:12:00,63.1,52.0,29.82,SW,216,0.0,0.0,67,0.00,,,0.00,meteobridge,2018-05-24 04:12:00,
2018-05-23 21:17:00,62.8,52.0,29.83,NE,54,1.1,3.0,68,0.00,,,0.00,meteobridge,2018-05-24 04:17:00,
2018-05-23 21:23:00,62.6,51.1,29.83,SSW,193,1.1,7.0,66,0.00,,,0.00,meteobridge,2018-05-24 04:23:00,
2018-05-23 21:28:00,62.2,51.1,29.83,SSW,210,1.1,4.0,67,0.00,,,0.00,meteobridge,2018-05-24 04:28:00,
2018-05-23 21:33:00,61.9,51.3,29.84,SSW,197,0.0,1.0,68,0.00,,,0.00,meteobridge,2018-05-24 04:33:00,
2018-05-23 21:39:00,61.3,51.1,29.84,SW,235,0.0,3.0,69,0.00,,,0.00,meteobridge,2018-05-24 04:39:00,
2018-05-23 21:44:00,61.2,50.2,29.84,SSW,209,1.1,1.1,67,0.00,,,0.00,meteobridge,2018-05-24 04:44:00,
2018-05-23 21:49:00,61.0,50.0,29.85,South,178,0.0,0.0,67,0.00,,,0.00,meteobridge,2018-05-24 04:49:00,
2018-05-23 21:55:00,60.6,49.3,29.85,SSW,199,0.0,1.0,66,0.00,,,0.00,meteobridge,2018-05-24 04:55:00,
2018-05-23 22:00:00,60.4,49.5,29.85,SW,214,1.1,2.0,67,0.00,,,0.00,meteobridge,2018-05-24 05:00:00,
2018-05-23 22:06:00,60.3,49.3,29.86,SE,145,0.0,0.0,67,0.00,,,0.00,meteobridge,2018-05-24 05:06:00,
2018-05-23 22:11:00,59.9,48.9,29.85,ESE,113,0.0,1.0,67,0.00,,,0.00,meteobridge,2018-05-24 05:11:00,
2018-05-23 22:17:00,59.7,49.5,29.86,WSW,241,0.0,0.0,69,0.00,,,0.00,meteobridge,2018-05-24 05:17:00,